Wind_Speed
5 5 4 4 4 5 7 9 9 10 12 13 16 20 20 18 16 15 15 15 14 15 15 17 18 21 23 25 27 29 30 31 33 34 35 36 37 38 39 39 39 39 39 39
4 3 2 1 3 6 9 9 8 8 9 11 13 15 17 15 13 11 10 10 10 11 12 15 17 19 21 23 25 27 28 30 32 34 35 36 37 37 38 38 38 38 38 38
1 1 1 2 4 5 7 7 8 10 11 13 16 16 16 13 10 9 6 7 8 10 12 14 16 18 20 22 24 26 28 30 32 33 35 36 36 37 38 38 37 37 37 37
6 3 1 2 3 4 7 8 10 12 14 16 18 20 18 13 9 5 3 4 6 9 11 13 15 17 19 21 23 25 27 29 31 32 34 35 35 36 37 37 37 37 37 37
9 5 3 3 4 5 7 8 9 11 14 16 17 17 11 7 2 1 2 4 7 9 11 13 16 18 20 22 23 26 28 30 31 32 33 34 35 36 36 37 37 37 38 37
8 6 3 5 7 7 7 9 9 10 12 13 13 12 9 7 5 5 5 7 9 11 13 16 18 20 22 24 26 28 29 31 32 32 33 34 35 36 37 37 38 37 38 38
7 4 4 5 7 7 8 9 9 9 10 11 11 12 12 10 7 7 8 10 13 15 17 19 21 24 26 28 30 32 33 34 34 35 35 36 37 37 38 38 38 38 39 39
6 4 4 4 6 6 7 8 9 9 10 10 9 11 12 10 9 10 12 14 16 19 21 23 26 28 30 32 35 36 37 38 38 38 38 38 38 39 39 39 39 39 39 39
6 5 5 4 4 6 7 8 9 9 10 9 9 10 12 11 11 13 15 18 20 23 25 27 29 31 33 36 37 39 39 39 39 39 39 39 39 39 39 39 39 39 39 40
7 6 6 7 6 8 9 10 9 9 9 9 10 12 14 14 14 16 19 21 24 26 27 29 31 34 36 38 39 40 41 41 41 40 40 40 40 40 40 40 40 40 39 40
6 6 6 7 7 8 10 11 10 10 11 12 14 15 15 16 17 19 22 24 27 28 29 30 33 35 37 39 40 41 41 41 41 41 41 41 40 40 40 40 40 39 39 39
6 7 7 7 6 7 8 11 11 11 12 14 17 18 17 19 20 22 24 26 27 28 29 31 34 36 38 40 40 41 41 41 41 41 41 41 41 41 41 41 40 39 39 40
7 8 8 8 7 6 8 10 11 13 14 16 19 19 19 21 22 24 25 26 27 28 30 32 35 38 39 40 40 41 41 41 41 42 42 42 42 41 41 40 40 40 40 39
8 8 8 9 9 9 9 10 12 14 15 17 19 19 20 22 23 24 25 26 28 30 31 34 37 39 39 40 40 40 41 42 42 43 43 43 42 42 41 40 40 40 40 39
6 8 8 9 10 12 11 11 13 15 16 18 19 20 21 23 23 24 25 27 29 31 33 35 38 39 39 40 40 41 42 43 43 44 44 44 43 42 41 40 40 40 40 40
6 6 6 8 10 11 11 12 14 16 17 18 19 21 23 23 24 25 26 28 30 31 34 36 38 39 40 40 41 42 43 44 45 45 45 45 44 42 41 40 40 40 40 39
8 7 7 9 10 10 11 12 14 15 17 19 21 22 24 24 25 25 26 28 30 32 34 37 38 39 40 41 42 43 44 45 46 46 46 46 44 42 41 40 40 40 39 38
7 7 8 10 10 11 11 13 14 16 19 20 21 23 24 25 25 25 26 28 30 32 35 37 39 40 41 42 43 44 45 46 46 47 47 46 45 43 41 40 40 39 38 37
8 8 10 12 12 11 13 13 15 17 19 21 22 24 26 26 26 25 27 29 31 34 36 38 39 40 41 42 43 45 46 46 47 47 47 46 44 42 41 40 39 39 38 37
8 10 12 14 13 13 11 13 16 18 20 21 23 24 25 26 27 27 29 30 32 35 37 38 40 41 42 42 44 45 46 46 47 47 47 46 44 43 41 40 39 39 38 37
13 15 15 15 16 17 17 18 19 21 22 23 24 25 25 26 27 28 29 31 33 35 37 39 40 42 42 43 44 45 46 46 47 47 47 46 44 43 42 41 40 39 38 37
18 19 20 21 21 22 22 23 23 24 24 24 24 25 26 26 27 28 30 32 34 36 38 39 41 42 43 43 44 45 46 46 46 46 46 46 44 43 42 41 40 39 38 37
21 22 24 23 24 24 24 25 25 26 25 25 25 25 26 27 28 29 31 33 35 37 38 40 41 42 43 44 45 45 46 46 46 46 46 45 44 43 42 41 40 38 36 36
21 24 26 26 26 26 26 25 25 25 25 24 25 26 26 27 29 31 33 35 37 38 40 41 42 43 43 44 45 45 46 46 45 45 45 45 44 42 42 41 38 36 36 35
20 24 26 27 26 25 24 25 25 25 25 26 26 27 28 30 31 33 35 37 39 40 41 42 43 43 44 44 45 45 46 45 45 45 45 44 43 42 41 40 38 36 36 36
21 25 27 27 26 26 25 26 27 27 27 28 28 29 31 32 34 35 37 38 40 41 42 43 43 44 44 45 45 45 45 46 45 45 44 43 42 41 40 38 37 36 36 36
Wind_Direction
103 100 116 153 196 243 277 276 276 271 266 263 258 263 260 255 255 261 268 276 279 282 286 289 291 293 294 296 297 298 298 297 297 296 296 295 294 294 292 291 290 289 287 286
86 93 119 174 249 284 302 306 309 308 306 292 280 276 271 269 259 266 266 275 280 288 295 298 299 300 301 302 302 302 301 300 299 298 298 297 297 295 294 293 291 289 287 285
359 343 302 279 278 303 319 327 330 327 329 325 319 316 304 296 272 268 274 285 289 299 303 305 307 308 308 307 306 304 302 301 300 299 299 299 298 297 296 295 293 291 288 286
355 345 322 303 310 321 334 332 333 331 334 332 327 326 320 309 287 260 290 306 312 312 313 314 314 313 312 310 309 308 306 304 302 301 300 299 299 298 298 297 296 294 291 289
7 9 26 7 353 345 348 340 336 341 340 334 330 330 335 334 332 158 0 345 334 329 326 325 322 319 317 316 315 313 311 309 307 305 304 302 301 300 299 298 297 295 293 291
13 17 25 9 356 343 340 338 338 343 345 349 352 5 22 39 60 51 19 357 347 342 336 332 327 325 324 322 320 318 317 315 313 311 308 306 305 303 302 300 299 297 295 293
8 7 8 1 358 343 333 328 328 334 343 353 360 26 34 36 34 20 6 353 349 341 338 336 333 331 330 327 325 324 322 321 319 316 313 310 308 306 304 302 300 298 296 294
1 354 345 347 4 350 329 322 325 331 339 347 3 15 13 16 11 3 356 350 344 341 340 338 335 333 331 329 327 326 325 323 320 318 315 313 311 309 307 304 302 299 296 294
356 343 322 333 356 352 350 343 339 332 330 333 341 348 356 3 3 357 351 347 344 342 340 337 335 332 331 329 328 326 324 322 321 319 317 315 313 310 308 306 303 300 297 294
345 330 305 310 322 338 334 337 339 339 337 330 328 333 345 360 2 354 348 346 344 341 338 336 334 332 330 328 326 325 325 324 322 321 319 317 314 312 310 307 304 301 298 294
332 318 301 298 308 316 323 329 335 342 337 328 327 333 348 355 355 350 347 345 341 338 335 333 331 330 328 327 326 326 326 325 324 322 321 319 317 314 311 308 305 302 300 297
314 308 298 290 301 314 322 325 329 337 336 332 329 335 344 349 349 346 343 340 336 333 330 329 329 328 328 327 326 327 327 326 326 325 324 322 320 317 314 311 308 304 302 298
313 306 300 293 295 309 318 320 325 331 333 332 332 334 340 344 342 339 336 333 330 329 328 328 329 329 328 327 327 328 329 329 328 327 326 324 322 319 316 313 309 307 304 300
314 309 299 291 289 291 301 312 316 321 326 328 331 335 339 339 337 333 330 327 326 327 328 329 328 328 328 328 329 330 331 331 330 329 328 326 324 321 318 315 311 309 306 302
316 315 307 297 292 294 298 301 304 311 319 322 328 334 336 334 331 328 326 324 325 327 328 327 327 328 329 330 331 332 333 333 332 331 330 328 326 323 320 317 314 311 308 305
315 318 310 300 294 296 296 296 300 309 315 321 328 332 329 327 325 324 324 323 324 325 326 326 327 329 330 332 332 332 333 333 333 332 331 330 328 325 321 318 316 314 311 309
304 314 318 315 307 302 292 290 296 304 312 319 324 325 321 321 321 322 321 320 322 324 325 326 328 329 330 331 332 332 332 333 333 332 332 331 329 326 323 320 318 316 314 312
294 308 318 320 314 307 296 297 299 304 311 318 319 319 318 318 319 319 319 320 322 324 325 327 329 330 330 331 331 332 332 332 333 333 333 332 330 328 325 323 321 319 318 314
284 307 317 320 316 311 307 308 305 306 312 318 318 318 317 316 318 320 321 320 321 324 326 327 329 329 330 331 331 332 333 333 333 334 334 333 332 330 327 325 323 322 321 317
294 306 316 318 315 315 319 311 308 311 315 317 317 317 316 317 319 320 319 320 322 324 326 327 329 329 330 331 331 332 333 333 334 334 335 334 333 331 330 328 326 325 323 320
304 309 315 320 322 322 322 319 318 319 319 319 318 315 314 314 316 317 318 319 321 323 325 327 328 329 330 330 331 332 333 334 334 335 336 336 334 333 332 331 329 327 325 323
297 304 311 315 316 315 316 317 318 318 317 315 313 312 312 313 315 316 317 318 321 323 325 327 328 329 329 330 331 332 333 334 334 335 336 337 335 334 334 333 332 330 329 328
287 295 299 302 305 308 310 313 314 314 313 311 310 309 311 312 314 315 317 318 320 322 324 326 327 328 329 329 330 332 333 334 335 336 337 337 336 336 336 335 335 334 333 333
280 287 291 296 300 303 306 308 309 308 309 309 308 308 309 311 312 314 316 318 319 322 324 325 326 328 329 329 330 332 333 335 336 337 337 338 337 337 337 338 337 337 336 336
280 282 285 290 295 299 302 303 304 305 306 307 307 307 308 310 311 313 315 317 319 321 323 324 325 327 329 330 331 332 334 335 336 337 338 338 338 338 338 339 339 338 339 339
282 281 284 289 294 297 299 301 302 304 305 305 305 306 307 309 310 312 314 316 318 320 322 323 325 326 328 329 330 332 333 335 335 336 337 338 338 338 339 340 340 340 341 341
Height
5877 5877 5877 5877 5877 5877 5877 5877 5877 5877 5877 5877 5876 5875 5873 5874 5874 5874 5874 5874 5873 5872 5871 5869 5868 5866 5863 5861 5858 5855 5852 5849 5845 5842 5839 5836 5832 5829 5826 5823 5820 5818 5815 5813
5878 5876 5876 5875 5875 5875 5874 5874 5874 5874 5873 5873 5872 5870 5869 5868 5869 5870 5869 5870 5869 5869 5867 5865 5864 5861 5859 5856 5853 5850 5846 5843 5839 5835 5831 5827 5824 5820 5817 5814 5811 5808 5805 5803
5876 5877 5875 5875 5874 5873 5873 5873 5872 5872 5870 5869 5867 5867 5865 5863 5864 5866 5866 5866 5866 5865 5864 5862 5860 5857 5854 5852 5848 5845 5841 5837 5832 5828 5823 5819 5815 5811 5808 5804 5801 5798 5795 5793
5876 5875 5875 5874 5874 5873 5872 5871 5871 5869 5868 5866 5866 5865 5863 5860 5861 5863 5863 5863 5863 5862 5861 5858 5856 5853 5850 5847 5843 5839 5835 5830 5825 5821 5816 5812 5807 5803 5799 5795 5791 5787 5784 5782
5876 5875 5874 5874 5873 5872 5871 5870 5870 5869 5867 5866 5864 5863 5862 5859 5859 5860 5862 5861 5861 5859 5857 5854 5852 5849 5845 5842 5837 5833 5828 5823 5818 5813 5808 5803 5799 5794 5790 5785 5781 5778 5774 5771
5876 5875 5874 5873 5872 5871 5869 5869 5868 5868 5867 5866 5864 5862 5861 5860 5860 5860 5860 5859 5857 5855 5853 5850 5847 5843 5839 5835 5831 5826 5821 5816 5810 5804 5799 5794 5790 5785 5780 5776 5771 5768 5764 5760
5876 5875 5874 5873 5871 5870 5869 5869 5869 5867 5866 5865 5863 5862 5862 5860 5859 5859 5857 5855 5853 5851 5848 5845 5841 5837 5832 5828 5823 5818 5812 5807 5801 5796 5791 5785 5780 5775 5771 5766 5762 5758 5754 5750
5875 5874 5874 5872 5871 5869 5869 5868 5868 5866 5864 5863 5862 5861 5861 5859 5857 5856 5854 5851 5849 5846 5842 5839 5835 5830 5826 5821 5816 5810 5805 5799 5793 5788 5782 5777 5771 5766 5761 5756 5751 5747 5743 5740
5874 5873 5872 5870 5869 5869 5868 5866 5865 5864 5862 5861 5860 5859 5858 5856 5855 5852 5850 5847 5843 5840 5836 5833 5829 5824 5820 5815 5809 5803 5798 5792 5786 5780 5774 5768 5762 5757 5751 5746 5741 5737 5732 5729
5872 5872 5870 5869 5868 5868 5867 5865 5864 5862 5860 5858 5857 5856 5855 5853 5851 5849 5845 5842 5838 5835 5832 5828 5824 5819 5814 5809 5803 5797 5791 5784 5778 5772 5765 5759 5753 5747 5741 5736 5731 5726 5721 5717
5871 5870 5870 5869 5867 5866 5866 5865 5862 5860 5858 5857 5854 5855 5852 5850 5847 5844 5841 5838 5834 5831 5828 5824 5819 5815 5809 5803 5797 5790 5784 5777 5771 5764 5757 5751 5744 5738 5731 5725 5720 5715 5710 5706
5869 5869 5867 5867 5866 5864 5863 5862 5860 5859 5857 5854 5852 5854 5849 5847 5844 5841 5838 5835 5832 5828 5825 5820 5816 5810 5804 5798 5791 5784 5777 5770 5763 5756 5749 5742 5735 5728 5722 5715 5709 5704 5699 5694
5867 5867 5866 5865 5865 5863 5861 5859 5858 5856 5854 5852 5850 5850 5845 5843 5841 5838 5835 5832 5829 5825 5821 5816 5811 5805 5799 5792 5785 5778 5771 5763 5756 5748 5741 5734 5726 5719 5712 5705 5699 5693 5687 5682
5865 5864 5864 5863 5861 5860 5858 5857 5855 5854 5852 5850 5847 5846 5843 5841 5838 5835 5832 5829 5825 5821 5816 5811 5806 5800 5793 5786 5779 5772 5764 5756 5749 5741 5733 5725 5718 5710 5702 5695 5689 5682 5676 5671
5863 5862 5860 5859 5858 5856 5855 5854 5853 5851 5849 5847 5845 5843 5841 5838 5835 5832 5829 5825 5820 5816 5811 5806 5801 5794 5787 5780 5773 5765 5757 5749 5741 5733 5725 5717 5709 5701 5693 5686 5679 5672 5665 5659
5860 5859 5858 5857 5855 5854 5853 5852 5850 5848 5846 5844 5842 5841 5838 5835 5832 5829 5825 5820 5816 5812 5807 5801 5795 5788 5781 5774 5766 5758 5751 5743 5734 5726 5717 5709 5700 5692 5684 5676 5669 5662 5655 5648
5857 5856 5855 5854 5852 5851 5850 5849 5847 5845 5844 5842 5840 5839 5835 5831 5828 5825 5821 5817 5812 5808 5802 5796 5789 5782 5775 5767 5760 5752 5744 5736 5727 5718 5709 5701 5692 5684 5675 5667 5660 5652 5645 5637
5854 5853 5852 5851 5850 5849 5849 5845 5844 5842 5840 5839 5837 5834 5830 5827 5824 5821 5817 5812 5807 5802 5797 5790 5783 5776 5769 5761 5753 5745 5737 5728 5720 5711 5702 5693 5684 5675 5667 5658 5650 5642 5635 5627
5851 5850 5849 5847 5846 5845 5844 5842 5841 5839 5837 5835 5832 5828 5825 5821 5818 5815 5811 5807 5802 5797 5791 5784 5777 5770 5762 5755 5747 5738 5730 5721 5712 5703 5694 5685 5676 5667 5659 5650 5641 5633 5625 5618
5847 5847 5846 5844 5842 5841 5842 5839 5837 5836 5832 5830 5827 5823 5819 5816 5813 5810 5806 5801 5796 5790 5784 5778 5771 5763 5756 5748 5740 5732 5723 5714 5705 5696 5687 5677 5668 5659 5651 5642 5633 5624 5616 5608
5843 5842 5841 5840 5838 5837 5836 5834 5832 5830 5829 5825 5821 5818 5815 5811 5808 5804 5800 5795 5790 5784 5778 5771 5764 5757 5750 5742 5734 5725 5716 5707 5698 5689 5679 5670 5660 5652 5643 5634 5624 5616 5607 5599
5839 5837 5836 5835 5833 5834 5831 5828 5827 5825 5822 5819 5816 5812 5809 5805 5802 5798 5793 5789 5783 5778 5772 5765 5758 5750 5743 5735 5727 5718 5710 5701 5691 5682 5672 5663 5653 5644 5635 5626 5617 5608 5599 5590
5835 5834 5832 5832 5831 5828 5825 5822 5820 5818 5816 5813 5810 5806 5803 5799 5796 5792 5787 5782 5777 5771 5765 5758 5751 5744 5736 5728 5720 5712 5703 5694 5684 5675 5666 5656 5646 5637 5628 5619 5610 5601 5592 5583
5832 5829 5827 5825 5824 5822 5820 5817 5815 5812 5809 5807 5803 5800 5797 5793 5789 5785 5781 5776 5770 5764 5758 5751 5744 5737 5729 5721 5713 5705 5696 5687 5678 5669 5660 5650 5641 5631 5622 5613 5603 5595 5586 5577
5827 5824 5821 5819 5818 5816 5814 5811 5808 5805 5803 5800 5796 5793 5790 5786 5783 5778 5774 5768 5763 5757 5751 5744 5737 5730 5722 5714 5706 5698 5689 5681 5672 5663 5654 5644 5635 5626 5617 5607 5598 5590 5581 5571
5820 5816 5814 5812 5811 5808 5806 5803 5800 5798 5795 5792 5790 5786 5783 5779 5775 5771 5766 5761 5755 5749 5743 5736 5730 5723 5715 5707 5699 5691 5683 5675 5666 5657 5648 5639 5630 5621 5612 5604 5594 5585 5576 5567